Location: Eastchurch
(51.4000°N, 0.8667°E)
Time: 23:39:05
(UTC+00:00)

Cosmos 2360 Rocket - Pass Details

Date: 19 January 2026
Orbit: 834 x 842 km, 71.0° (Epoch: 18 February)

Event Time Altitude Azimuth Distance (km) Brightness Sun altitude
Rises 18:46:00 0° 329° (NNW) 3,394 5.7 -21.6°
Reaches altitude 10° 18:49:22 10° 349° (N) 2,457 4.7 -22.1°
Enters shadow 18:52:07 17° 18° (NNE) 2,026 4.0 -22.6°
